Wind_Speed
45 45 45 44 43 42 41 39 38 36 35 33 32 31 30 30 29 29 28 28 28 28 27 27 27 27 28 28 28 28 28 28 28 28 28 28 28 28 27 28 28 28 28
45 46 46 46 45 43 42 42 40 39 37 36 34 33 33 32 32 31 31 31 30 30 30 30 30 30 30 30 29 30 30 30 30 30 30 29 29 28 28 29 29 29 29
46 46 46 46 45 45 45 44 42 41 40 38 37 36 35 34 34 34 33 33 33 33 32 32 32 32 32 31 31 32 32 32 32 32 31 30 30 29 29 30 29 29 29
46 47 47 47 47 47 47 46 45 43 42 41 40 39 38 37 36 36 35 35 35 35 35 34 34 34 34 33 33 33 33 33 33 32 32 31 31 30 30 30 29 29 30
48 48 48 49 49 48 48 48 46 46 45 44 43 42 41 39 39 38 38 38 37 37 36 35 35 34 34 35 35 35 35 34 34 33 33 32 31 31 31 30 29 30 31
50 49 50 50 50 51 50 49 49 49 48 47 47 46 44 43 41 40 40 39 38 38 36 35 35 35 35 36 36 36 36 35 35 34 34 33 33 32 31 31 31 32 32
52 52 52 52 52 52 51 51 51 51 50 49 48 48 47 45 43 41 40 40 39 39 38 37 37 37 38 37 37 37 37 37 36 35 34 34 34 33 32 32 33 33 33
53 54 53 53 54 54 54 52 53 54 53 53 51 49 47 46 45 43 42 41 41 41 40 39 39 39 39 38 38 40 40 38 37 36 36 35 35 34 34 34 34 34 35
53 52 53 53 53 53 54 54 54 54 53 52 52 51 49 46 45 45 44 44 44 44 43 42 42 42 42 42 41 41 41 39 39 38 37 36 35 35 35 35 35 36 36
52 53 51 51 53 52 52 53 54 53 52 51 51 50 49 48 48 46 46 46 46 46 46 46 45 44 43 43 43 42 41 40 40 39 38 37 37 37 36 36 37 37 37
51 53 53 51 51 50 50 50 52 53 53 52 51 51 50 49 48 48 48 48 48 48 47 47 47 45 45 44 43 41 40 40 39 39 38 38 38 38 38 38 38 38 39
50 51 51 51 51 50 50 50 50 53 54 54 53 53 52 51 50 50 50 49 49 48 49 48 47 46 44 43 41 40 39 39 39 39 40 40 40 40 39 39 39 39 40
48 49 50 51 51 50 50 50 51 50 52 53 53 53 53 52 51 50 49 49 48 48 48 47 46 45 43 42 41 40 40 39 40 41 41 41 41 41 40 40 40 40 41
46 47 50 50 50 50 50 51 51 51 51 52 52 52 51 51 50 50 49 49 49 48 47 46 46 45 44 44 42 42 42 42 42 42 42 43 42 42 42 42 41 41 42
42 45 47 48 48 50 51 51 51 51 51 52 53 53 52 53 53 52 52 51 50 49 48 47 47 45 44 44 44 44 44 44 44 44 44 44 44 43 43 42 41 41 42
37 39 42 44 45 47 49 50 50 50 50 50 51 52 53 54 54 54 54 52 51 51 48 46 46 45 45 45 45 45 46 47 47 46 45 44 44 44 43 42 43 42 42
34 37 39 41 42 44 46 48 49 50 51 50 51 52 53 54 54 54 53 53 53 51 49 47 46 47 49 49 49 49 49 49 49 48 47 46 45 45 43 43 43 42 42
34 36 38 40 42 43 44 45 47 49 49 50 49 50 51 52 53 52 52 54 54 53 52 51 50 51 52 52 51 51 51 50 50 49 48 47 46 45 44 44 43 43 43
34 36 37 39 42 43 45 46 47 47 48 49 48 49 49 50 50 51 52 53 54 54 55 55 54 54 54 54 54 53 52 51 51 50 49 48 46 45 45 45 44 43 42
35 37 39 41 43 44 45 46 48 48 49 50 50 50 50 50 50 51 53 54 54 55 56 56 56 56 56 56 56 55 54 53 51 50 49 48 47 46 45 45 43 42 41
38 40 41 43 45 47 48 48 48 50 50 50 51 52 52 52 53 53 54 55 56 57 57 58 58 58 58 57 56 55 54 53 52 51 49 48 47 46 44 43 41 40 40
40 41 43 45 46 48 50 50 51 52 52 53 53 53 54 54 56 57 58 58 59 59 59 60 60 60 59 58 57 56 55 54 52 50 48 47 45 44 43 41 40 39 39
43 45 47 48 50 51 53 54 55 56 56 57 57 57 58 58 59 60 61 62 62 62 61 61 61 60 59 58 57 56 54 52 50 49 48 46 45 43 41 40 39 39 39
46 48 49 51 53 55 56 58 58 59 59 60 60 60 61 62 62 62 62 62 61 61 60 60 59 58 58 58 56 53 51 50 49 48 47 45 44 43 41 40 40 39 38
47 49 51 53 56 57 59 61 62 62 63 62 62 62 63 63 63 62 62 61 61 61 60 59 58 57 56 56 55 53 52 50 49 47 46 45 44 43 42 41 40 39 38
50 52 53 56 58 60 62 64 66 66 66 66 65 64 64 64 63 63 62 62 61 60 60 59 58 57 56 55 55 54 52 50 49 48 46 45 43 42 41 40 39 38 37
Wind_Direction
242 242 242 243 243 244 245 246 246 247 248 250 251 252 253 255 256 257 258 261 264 266 268 270 273 276 278 281 284 286 289 291 294 296 298 299 302 304 306 308 311 313 315
241 242 243 243 243 244 245 246 246 247 248 249 250 251 253 255 257 257 258 261 263 266 268 269 272 275 278 279 282 285 288 290 292 294 296 297 299 301 304 306 308 311 312
241 241 242 243 244 244 245 245 247 248 248 249 251 252 253 255 257 257 258 260 263 265 267 269 271 273 276 277 281 284 286 288 290 292 293 294 296 298 301 304 306 308 310
241 241 241 241 243 244 245 246 247 248 249 250 250 251 253 254 256 257 259 261 263 265 267 269 271 272 274 276 279 282 284 286 288 290 291 292 294 296 299 301 303 305 307
240 241 241 242 243 244 245 246 247 248 248 250 251 251 253 255 256 256 258 261 262 265 266 268 270 271 273 276 278 280 283 285 287 288 290 291 292 294 297 299 300 302 304
239 241 241 242 243 243 245 246 247 248 249 250 251 252 253 254 255 256 259 261 262 264 265 267 269 270 272 274 276 278 281 283 284 285 288 289 291 292 294 296 297 300 302
238 240 242 242 243 243 244 246 247 248 250 251 252 253 253 254 256 257 260 261 262 263 264 265 267 269 271 272 275 277 279 281 281 283 286 287 288 290 292 294 296 298 300
238 239 241 242 243 243 244 245 247 248 250 251 252 253 254 255 256 258 259 260 262 264 264 264 266 269 270 271 274 275 277 278 280 281 283 284 286 288 290 292 294 296 299
237 239 241 242 243 245 246 246 247 249 250 252 253 255 255 257 257 257 259 260 261 262 262 262 265 267 270 271 273 275 276 276 277 280 281 282 284 286 288 290 292 294 297
237 238 240 241 244 246 247 248 248 249 250 252 253 254 255 257 258 259 259 260 261 263 263 264 265 267 268 271 272 273 274 274 276 278 279 280 283 285 287 289 290 293 296
236 239 240 242 245 248 248 248 248 249 252 253 255 256 257 258 259 260 261 261 262 263 263 263 265 266 268 270 271 271 271 273 275 277 278 280 282 284 285 287 289 292 296
238 239 240 243 245 247 248 249 250 252 253 254 255 255 257 258 259 260 262 262 262 263 263 264 265 265 267 268 269 269 269 273 275 277 278 279 281 282 284 287 289 292 295
240 239 239 242 244 245 246 247 248 251 252 253 253 255 257 259 258 258 260 262 262 263 264 264 263 264 266 266 266 267 269 273 276 278 279 280 281 282 284 286 288 292 295
241 241 242 243 244 245 245 247 249 251 253 253 253 254 255 255 255 256 257 259 261 263 264 265 263 264 265 266 265 266 269 272 276 278 279 279 279 281 282 285 288 291 294
242 244 245 243 244 246 247 249 251 252 253 253 253 253 253 254 256 256 257 259 261 263 265 266 266 265 265 265 265 267 270 273 276 279 279 278 278 279 281 284 288 291 294
244 247 247 246 246 248 248 250 251 252 252 253 254 254 254 255 255 256 257 258 261 263 264 266 266 266 266 268 268 269 271 273 275 277 277 276 276 278 280 283 287 290 293
246 247 250 250 250 251 252 252 252 252 252 254 255 256 256 256 256 256 258 258 260 262 263 264 265 266 267 268 269 271 272 273 274 275 275 275 276 277 279 282 285 289 292
250 252 253 253 252 254 254 254 254 254 254 255 256 257 257 257 257 258 258 258 259 260 262 263 264 266 266 267 268 271 271 272 271 272 273 274 274 275 278 281 285 288 291
256 255 255 255 255 257 257 256 256 256 256 256 257 259 258 257 257 257 258 259 259 261 262 262 263 264 265 266 267 268 269 269 269 269 271 271 272 274 276 279 283 286 289
259 258 257 258 258 257 258 259 258 258 258 258 258 259 258 258 257 258 259 259 260 261 262 262 262 263 264 265 266 267 268 267 267 267 269 269 271 273 275 277 280 284 288
263 263 262 262 261 261 260 260 261 261 260 259 259 259 259 259 259 259 259 260 261 262 262 262 262 263 263 263 264 265 265 265 265 266 267 268 270 272 274 276 279 282 286
267 266 265 264 264 264 264 263 263 261 260 260 260 259 259 259 259 259 259 261 262 261 262 261 261 261 261 261 261 261 263 263 263 264 265 267 269 270 271 274 277 281 285
273 270 268 266 266 266 266 266 265 263 262 261 261 260 259 259 259 259 259 260 260 260 260 260 260 260 259 258 258 258 258 259 260 262 263 265 266 267 270 273 276 280 284
275 273 270 269 268 267 267 267 266 265 263 262 262 261 261 261 261 260 259 259 259 259 259 259 258 258 256 255 254 254 254 256 258 260 261 263 264 267 270 273 276 279 282
279 276 274 272 271 269 268 267 266 265 264 263 263 262 261 261 261 260 259 258 257 256 256 256 255 253 253 253 253 253 253 256 257 259 261 262 264 266 269 272 274 276 279
282 280 277 276 274 272 270 268 267 266 265 263 262 261 260 260 259 258 257 257 256 255 254 252 252 252 252 252 252 252 254 254 257 259 261 261 263 266 268 269 271 273 276
Height
5799 5802 5806 5809 5812 5815 5818 5821 5824 5827 5829 5831 5833 5835 5836 5838 5839 5840 5841 5842 5843 5843 5843 5843 5843 5843 5843 5842 5842 5841 5840 5839 5838 5836 5835 5833 5831 5829 5827 5825 5823 5820 5818
5791 5794 5798 5801 5805 5808 5811 5814 5817 5819 5822 5824 5826 5828 5830 5832 5833 5834 5835 5836 5837 5837 5837 5838 5838 5838 5837 5837 5836 5835 5835 5833 5832 5831 5829 5827 5826 5824 5822 5820 5818 5815 5813
5782 5786 5789 5793 5796 5800 5803 5805 5809 5812 5815 5817 5819 5821 5823 5825 5826 5827 5828 5829 5830 5831 5831 5831 5831 5831 5831 5830 5830 5829 5828 5827 5826 5825 5823 5822 5820 5818 5817 5815 5812 5810 5808
5773 5777 5781 5785 5788 5791 5794 5797 5801 5804 5807 5809 5811 5813 5815 5817 5819 5820 5821 5822 5823 5823 5824 5824 5824 5824 5824 5824 5823 5823 5822 5821 5820 5819 5817 5816 5814 5813 5811 5809 5807 5805 5802
5764 5768 5772 5776 5779 5782 5785 5789 5792 5795 5798 5800 5803 5805 5807 5809 5810 5812 5813 5814 5815 5816 5816 5817 5817 5817 5817 5817 5816 5816 5815 5814 5813 5812 5811 5809 5808 5806 5805 5803 5801 5799 5796
5755 5759 5763 5766 5769 5773 5776 5780 5783 5786 5789 5791 5793 5796 5798 5800 5802 5803 5805 5806 5807 5808 5809 5809 5809 5809 5809 5809 5809 5809 5808 5807 5806 5805 5804 5803 5801 5800 5798 5796 5794 5792 5790
5745 5749 5753 5757 5760 5763 5767 5771 5773 5776 5779 5781 5784 5786 5789 5791 5793 5795 5796 5798 5799 5800 5801 5801 5801 5801 5801 5801 5801 5801 5800 5800 5799 5798 5797 5796 5795 5793 5791 5790 5788 5785 5783
5736 5740 5743 5747 5750 5754 5757 5760 5763 5766 5769 5772 5774 5776 5779 5782 5784 5786 5787 5789 5790 5791 5791 5792 5792 5793 5793 5793 5793 5793 5792 5792 5791 5790 5789 5788 5787 5786 5784 5782 5781 5779 5776
5725 5729 5733 5737 5740 5743 5747 5751 5753 5756 5759 5762 5764 5767 5770 5772 5774 5776 5777 5779 5780 5781 5782 5782 5783 5783 5784 5784 5784 5784 5784 5783 5783 5782 5782 5781 5780 5778 5777 5775 5773 5771 5769
5715 5719 5723 5727 5730 5733 5737 5740 5743 5746 5748 5751 5753 5756 5760 5762 5763 5765 5767 5769 5770 5771 5772 5773 5773 5774 5774 5775 5775 5775 5775 5775 5774 5774 5773 5772 5771 5770 5769 5767 5765 5763 5761
5705 5709 5713 5717 5720 5723 5727 5730 5732 5735 5738 5741 5743 5746 5748 5750 5752 5754 5756 5758 5759 5760 5761 5762 5763 5764 5765 5765 5765 5765 5765 5765 5765 5765 5764 5764 5763 5762 5760 5759 5757 5755 5753
5695 5699 5703 5707 5710 5713 5717 5720 5722 5725 5727 5730 5732 5735 5737 5739 5742 5743 5744 5746 5747 5749 5750 5751 5752 5753 5754 5754 5755 5756 5756 5756 5756 5755 5755 5754 5754 5753 5752 5750 5749 5747 5745
5686 5690 5693 5696 5700 5703 5706 5709 5711 5714 5716 5719 5721 5724 5726 5728 5730 5732 5733 5734 5736 5738 5739 5740 5741 5742 5743 5744 5745 5746 5746 5746 5746 5746 5746 5745 5744 5743 5742 5741 5740 5738 5736
5677 5680 5683 5686 5689 5692 5695 5698 5700 5703 5705 5707 5709 5712 5714 5716 5718 5720 5722 5724 5725 5727 5728 5730 5731 5732 5733 5734 5734 5735 5736 5736 5736 5736 5735 5735 5734 5734 5733 5731 5730 5729 5727
5667 5670 5673 5676 5679 5681 5684 5687 5689 5692 5694 5696 5698 5700 5702 5704 5706 5708 5710 5712 5714 5715 5718 5719 5720 5721 5721 5722 5723 5724 5724 5725 5725 5725 5725 5724 5724 5723 5723 5722 5720 5719 5717
5658 5660 5663 5666 5668 5671 5673 5676 5678 5680 5682 5684 5686 5688 5690 5692 5694 5696 5698 5700 5702 5704 5706 5708 5708 5709 5710 5711 5712 5712 5713 5713 5713 5713 5714 5713 5713 5713 5712 5712 5711 5709 5707
5650 5652 5654 5656 5658 5660 5662 5664 5666 5668 5670 5672 5674 5676 5678 5680 5681 5683 5685 5687 5689 5691 5693 5695 5696 5697 5698 5699 5700 5700 5701 5702 5702 5702 5702 5702 5702 5702 5702 5701 5700 5699 5697
5642 5643 5645 5646 5648 5649 5651 5652 5654 5656 5657 5659 5661 5662 5664 5666 5668 5670 5672 5674 5676 5677 5679 5681 5683 5684 5685 5686 5687 5688 5688 5689 5689 5690 5690 5691 5691 5691 5691 5691 5690 5689 5688
5632 5633 5634 5635 5636 5637 5639 5640 5641 5643 5644 5646 5647 5649 5651 5652 5654 5656 5657 5659 5661 5663 5664 5666 5668 5670 5671 5672 5673 5674 5675 5676 5676 5677 5678 5679 5679 5680 5680 5680 5679 5679 5678
5622 5622 5623 5623 5624 5625 5625 5626 5627 5628 5630 5631 5633 5635 5637 5638 5640 5641 5643 5645 5646 5647 5649 5651 5653 5655 5656 5658 5659 5660 5662 5663 5664 5665 5665 5667 5668 5668 5668 5668 5668 5668 5667
5611 5610 5610 5610 5611 5611 5611 5611 5612 5613 5614 5616 5617 5619 5621 5622 5624 5625 5627 5629 5630 5632 5633 5634 5637 5639 5641 5643 5645 5646 5648 5649 5650 5651 5653 5655 5656 5657 5657 5657 5657 5657 5656
5598 5598 5597 5597 5597 5596 5596 5596 5597 5598 5599 5600 5601 5603 5604 5605 5607 5608 5610 5611 5613 5615 5617 5618 5620 5622 5625 5628 5630 5631 5633 5635 5637 5639 5640 5642 5644 5645 5645 5646 5646 5646 5646
5585 5584 5583 5582 5581 5581 5580 5580 5580 5581 5582 5583 5584 5585 5586 5587 5588 5590 5591 5593 5595 5597 5599 5601 5603 5606 5609 5612 5614 5616 5618 5621 5623 5625 5627 5629 5631 5633 5634 5634 5635 5635 5635
5570 5568 5566 5565 5564 5563 5562 5562 5561 5562 5562 5563 5564 5565 5567 5568 5569 5570 5572 5574 5576 5578 5581 5583 5586 5589 5591 5594 5598 5601 5604 5607 5609 5611 5614 5617 5619 5621 5622 5623 5624 5625 5624
5554 5551 5548 5546 5545 5543 5542 5541 5540 5541 5542 5542 5543 5544 5545 5547 5549 5550 5552 5555 5558 5560 5562 5565 5568 5571 5575 5578 5582 5586 5589 5592 5596 5598 5601 5604 5606 5608 5610 5612 5613 5613 5614
5537 5534 5530 5527 5525 5523 5521 5519 5518 5518 5519 5521 5522 5522 5524 5526 5528 5529 5531 5535 5538 5541 5544 5547 5551 5555 5559 5563 5567 5571 5574 5578 5582 5585 5588 5591 5593 5596 5598 5600 5601 5602 5603